Location: Huesca
(42.1318°N, 0.4078°W)
Time: 05:04:51
(UTC+02:00)

Tiangong - Pass Details

Date: 14 June 2024
Orbit: 374 x 377 km, 41.5° (Epoch: 18 July)

Event Time Altitude Azimuth Distance (km) Brightness Sun altitude
Rises 23:10:01 0° 277° (W) 2,248 2.5 -13.4°
Reaches altitude 10° 23:12:15 10° 265° (W) 1,391 1.2 -13.7°
Maximum altitude 23:15:00 28° 204° (SSW) 740 -1.0 -14.0°
Enters shadow 23:15:43 25° 178° (S) 800 -1.0 -14.1°
